Skip Page Navigation
NASA JPL Caltech
NASA Logo - Jet Propulsion Laboratory + View the NASA Portal
+ Near-Earth Object (NEO) Program
Search JPL
JPL Home Earth Solar System Stars & Galaxies Technology
JPL Solar System Dynamics
BODIES ORBITS EPHEMERIDES TOOLS PHYSICAL DATA DISCOVERY FAQ SITE MAP
JPL Small-Body Database Browser
Search: [ help ]  
20204 Yuudurunosato (1997 EV25)
Classification: Main-belt Asteroid          SPK-ID: 2020204
Ephemeris | Orbit Diagram | Orbital Elements | Physical Parameters | Discovery Circumstances | Close-Approach Data ]

[ show orbit diagram ]
Orbital Elements at Epoch 2457000.5 (2014-Dec-09.0) TDB
Reference: JPL 11 (heliocentric ecliptic J2000)
 Element Value Uncertainty (1-sigma)   Units 
e .0488464930370977 5.2769e-08  
a 2.736594578390899 2.3901e-08 AU
q 2.602921530372169 1.5386e-07 AU
i 4.241075298483925 5.5075e-06 deg
node 144.2446478535868 9.4816e-05 deg
peri 337.0653524061441 0.00012303 deg
M 23.6259219976045 7.8109e-05 deg
tp 2456891.982348782290
(2014-Aug-22.48234878)
0.00035857 JED
period 1653.537772720012
4.53
2.1663e-05
5.931e-08
d
yr
n .2177150144007975 2.8523e-09 deg/d
Q 2.87026762640963 2.5069e-08 AU
  Orbit Determination Parameters
   # obs. used (total)      1129  
   data-arc span      12776 days (34.98 yr)  
   first obs. used      1979-03-31  
   last obs. used      2014-03-23  
   planetary ephem.      DE431  
   SB-pert. ephem.      SB431-BIG16  
   condition code      0  
   fit RMS      .49283  
   data source      ORB  
   producer      Otto Matic  
   solution date      2014-Jun-09 22:38:50  

Additional Information
 Earth MOID = 1.6193 AU 
 T_jup = 3.346 
[ show covariance matrix ]

Ephemeris | Orbit Diagram | Orbital Elements | Physical Parameters | Discovery Circumstances | Close-Approach Data ]

Physical Parameter Table
Parameter Symbol Value Units Sigma Reference Notes
absolute magnitude H 13.2 mag n/a MPO279725  

20204 Yuudurunosato           Discovered 1997 Mar. 1 by T. Okuni at Nanyo.
Yuudurunosato is the nickname of Urushiyama, located in the western area of Nanyo city. The nickname is derived from the famous folk tale Yuuduru.
NOTE: some special characters may not display properly (any characters within {} are an attempt to place the proper accent above a character)
Reference: 20050523/MPCPages.arcLast Updated: 2005-07-21

[ show close-approach data ]
Alternate Designations
 1997 EV25 = 1979 FQ3 = 1999 TR93 
Ephemeris | Orbit Diagram | Orbital Elements | Physical Parameters | Discovery Circumstances | Close-Approach Data ]
ABOUT SSD CREDITS/AWARDS PRIVACY/COPYRIGHT GLOSSARY LINKS
FirstGov 2014-Oct-23 13:07 UT
(server date/time)  
NASA Home Page
Site Manager:   Donald K. Yeomans
Webmaster  Alan B. Chamberlin